This is the latest recevied weather packets stored in our database for station/object MM1PTT-13. If no packets are shown the sender has not sent any weather packets the latest 1 day(s).
| Time | Temp. | Humidity | Pressure | Rain* | Wind** | Luminosity | Snow |
|---|---|---|---|---|---|---|---|
| 1778019343 | 6.67° C | 70% | 988.8 hPa | 0 mm | 0.89 m/s, 28° | 0 W/m² | - |
| 1778019043 | 6.67° C | 70% | 988.8 hPa | 0 mm | 1.34 m/s, 25° | 0 W/m² | - |
| 1778018743 | 6.67° C | 69% | 988.8 hPa | 0 mm | 1.34 m/s, 63° | 0 W/m² | - |
| 1778018443 | 6.67° C | 69% | 988.8 hPa | 0 mm | 0.89 m/s, 55° | 0 W/m² | - |
| 1778018143 | 6.67° C | 69% | 988.8 hPa | 0 mm | 0.89 m/s, 35° | 0 W/m² | - |
| 1778017844 | 6.67° C | 70% | 988.8 hPa | 0 mm | 0.45 m/s, 74° | 0 W/m² | - |
| 1778017544 | 6.67° C | 69% | 988.8 hPa | 0 mm | 0.89 m/s, 53° | 0 W/m² | - |
| 1778017243 | 6.67° C | 69% | 988.5 hPa | 0 mm | 1.34 m/s, 62° | 0 W/m² | - |
| 1778016943 | 6.67° C | 69% | 988.8 hPa | 0 mm | 1.34 m/s, 39° | 0 W/m² | - |
| 1778016642 | 6.67° C | 69% | 988.5 hPa | 0 mm | 0.89 m/s, 12° | 0 W/m² | - |
| 1778016344 | 6.67° C | 69% | 988.8 hPa | 0 mm | 1.34 m/s, 37° | 0 W/m² | - |
| 1778016043 | 6.67° C | 69% | 988.5 hPa | 0 mm | 0.45 m/s, 125° | 0 W/m² | - |
| 1778015743 | 6.67° C | 70% | 988.5 hPa | 0 mm | 1.34 m/s, 71° | 0 W/m² | - |
| 1778015443 | 6.67° C | 69% | 988.8 hPa | 0 mm | 0.89 m/s, 20° | 0 W/m² | - |
| 1778015143 | 6.67° C | 69% | 988.5 hPa | 0 mm | 1.79 m/s, 46° | 0 W/m² | - |
| 1778014843 | 6.67° C | 69% | 988.5 hPa | 0 mm | 0.89 m/s, 30° | 0 W/m² | - |
| 1778014543 | 6.67° C | 68% | 988.8 hPa | 0 mm | 1.34 m/s, 51° | 0 W/m² | - |
| 1778014246 | 6.67° C | 69% | 988.5 hPa | 0 mm | 0.89 m/s, 24° | 0 W/m² | - |
| 1778013943 | 6.67° C | 68% | 988.8 hPa | 0 mm | 1.79 m/s, 52° | 0 W/m² | - |
| 1778013643 | 6.67° C | 68% | 988.5 hPa | 0 mm | 0.45 m/s, 29° | 0 W/m² | - |
| 1778013343 | 7.22° C | 67% | 988.5 hPa | 0 mm | 1.79 m/s, 118° | 0 W/m² | - |
| 1778013042 | 7.22° C | 67% | 988.5 hPa | 0 mm | 1.79 m/s, 53° | 0 W/m² | - |
| 1778012743 | 7.22° C | 68% | 988.5 hPa | 0 mm | 1.34 m/s, 49° | 0 W/m² | - |
| 1778012443 | 7.22° C | 67% | 988.1 hPa | 0 mm | 1.79 m/s, 46° | 0 W/m² | - |
| 1778012143 | 7.22° C | 67% | 988.5 hPa | 0 mm | 1.34 m/s, 31° | 1 W/m² | - |
* Rain latest hour (hover to see other rain measurements)
** Current wind speed in m/s (hover to see current wind gust speed)